When you browse on this site, cookies collect data to enhance your experience and personalize the content and advertising you see.
Visit our Privacy Policy to learn more. By continuing to use the site, you agree to this use of cookies and data.
  • In Deutschland
  • Länderverzeichnis
  • Für 7 Tage
  • Wassertemperatur
  • Wetterkarte
  • Widgets
  • user-avatar
    Anmelden

    Stündliche Wetter Bruchsal

    Heute, 20 Februar, Donnerstag

    Zeit Temperatur Niederschläge Wind Luftdruck Luftfeuchtigkeit
    00:00 +3°C° 0 mm 3 m/S 757 mmHg 82%
    01:00 +3°C° 0 mm 3 m/S 757 mmHg 83%
    02:00 +3°C° 0 mm 3 m/S 756 mmHg 84%
    03:00 +4°C° 0 mm 3 m/S 756 mmHg 85%
    04:00 +4°C° 0 mm 3 m/S 756 mmHg 86%
    05:00 +4°C° 0.1 mm 3 m/S 755 mmHg 85%
    06:00 +4°C° 0.1 mm 3 m/S 755 mmHg 85%
    07:00 +4°C° 0.1 mm 3 m/S 755 mmHg 85%
    08:00 +5°C° 0 mm 3 m/S 755 mmHg 82%
    09:00 +7°C° 0 mm 3 m/S 755 mmHg 80%
    10:00 +6°C° 0 mm 4 m/S 755 mmHg 78%
    11:00 +7°C° 0 mm 4 m/S 755 mmHg 75%
    12:00 +8°C° 0 mm 4 m/S 754 mmHg 72%
    13:00 +8°C° 0 mm 5 m/S 754 mmHg 69%
    14:00 +8°C° 0 mm 4 m/S 753 mmHg 69%
    15:00 +8°C° 0 mm 4 m/S 753 mmHg 69%
    16:00 +8°C° 0 mm 4 m/S 752 mmHg 69%
    17:00 +8°C° 0 mm 4 m/S 752 mmHg 71%
    18:00 +8°C° 0 mm 4 m/S 752 mmHg 73%
    19:00 +7°C° 0 mm 4 m/S 752 mmHg 75%
    20:00 +7°C° 0 mm 5 m/S 752 mmHg 75%
    21:00 +7°C° 0 mm 6 m/S 752 mmHg 74%
    22:00 +8°C° 0 mm 6 m/S 752 mmHg 74%
    23:00 +7°C° 0.3 mm 6 m/S 753 mmHg 74%

    Morgen, 21 Februar, Freitag

    Zeit Temperatur Niederschläge Wind Luftdruck Luftfeuchtigkeit
    00:00 +5°C° 0.3 mm 6 m/S 754 mmHg 74%
    01:00 +4°C° 0.3 mm 6 m/S 755 mmHg 74%
    02:00 +3°C° 0 mm 5 m/S 756 mmHg 74%
    03:00 +2°C° 0 mm 5 m/S 757 mmHg 75%
    04:00 +2°C° 0 mm 5 m/S 758 mmHg 75%
    05:00 +1°C° 0 mm 4 m/S 759 mmHg 77%
    06:00 +1°C° 0 mm 4 m/S 759 mmHg 78%
    07:00 0°C° 0 mm 4 m/S 760 mmHg 79%
    14:00 +6°C° 0 mm 4 m/S 762 mmHg 60%
    15:00 +6°C° 0 mm 4 m/S 761 mmHg 60%
    16:00 +6°C° 0 mm 4 m/S 761 mmHg 60%
    17:00 +5°C° 0 mm 3 m/S 761 mmHg 64%
    18:00 +4°C° 0 mm 3 m/S 761 mmHg 68%
    19:00 +5°C° 0 mm 2 m/S 761 mmHg 73%
    20:00 +5°C° 0 mm 2 m/S 761 mmHg 73%
    21:00 +4°C° 0 mm 2 m/S 761 mmHg 74%
    22:00 +4°C° 0 mm 2 m/S 762 mmHg 75%
    23:00 +4°C° 0 mm 2 m/S 761 mmHg 76%

    übermorgen, 22 Februar, Samstag

    Zeit Temperatur Niederschläge Wind Luftdruck Luftfeuchtigkeit
    00:00 +3°C° 0 mm 3 m/S 761 mmHg 76%
    01:00 +2°C° 0 mm 3 m/S 761 mmHg 77%
    02:00 +2°C° 0 mm 3 m/S 761 mmHg 77%
    03:00 +2°C° 0 mm 3 m/S 761 mmHg 77%
    04:00 +2°C° 0 mm 3 m/S 760 mmHg 77%
    05:00 +2°C° 0 mm 3 m/S 760 mmHg 77%
    06:00 +2°C° 0 mm 3 m/S 760 mmHg 77%
    07:00 +1°C° 0 mm 3 m/S 760 mmHg 77%
    08:00 +3°C° 0 mm 4 m/S 760 mmHg 72%
    09:00 +4°C° 0 mm 4 m/S 760 mmHg 67%
    10:00 +5°C° 0 mm 5 m/S 759 mmHg 62%
    11:00 +6°C° 0 mm 5 m/S 759 mmHg 58%
    12:00 +8°C° 0 mm 5 m/S 759 mmHg 53%
    13:00 +9°C° 0 mm 6 m/S 759 mmHg 49%
    14:00 +10°C° 0 mm 6 m/S 758 mmHg 50%
    15:00 +10°C° 0 mm 6 m/S 758 mmHg 51%
    16:00 +10°C° 0 mm 6 m/S 758 mmHg 52%
    17:00 +9°C° 0 mm 6 m/S 758 mmHg 54%
    18:00 +9°C° 0 mm 6 m/S 758 mmHg 56%
    19:00 +8°C° 0 mm 6 m/S 758 mmHg 58%
    20:00 +8°C° 0 mm 6 m/S 758 mmHg 61%
    21:00 +8°C° 0 mm 6 m/S 759 mmHg 64%
    22:00 +8°C° 0 mm 6 m/S 759 mmHg 67%
    23:00 +8°C° 0 mm 6 m/S 759 mmHg 68%

    23 Februar, Sonntag

    Zeit Temperatur Niederschläge Wind Luftdruck Luftfeuchtigkeit
    00:00 +7°C° 0 mm 6 m/S 759 mmHg 68%
    01:00 +7°C° 0 mm 6 m/S 759 mmHg 68%
    02:00 +7°C° 0 mm 6 m/S 758 mmHg 71%
    03:00 +7°C° 0 mm 5 m/S 758 mmHg 73%
    04:00 +7°C° 0 mm 5 m/S 758 mmHg 75%
    05:00 +7°C° 0 mm 5 m/S 758 mmHg 76%
    06:00 +7°C° 0 mm 5 m/S 758 mmHg 77%
    07:00 +7°C° 0 mm 6 m/S 758 mmHg 78%
    08:00 +7°C° 0 mm 6 m/S 758 mmHg 78%
    09:00 +8°C° 0 mm 6 m/S 757 mmHg 77%
    10:00 +8°C° 0 mm 7 m/S 757 mmHg 77%
    11:00 +8°C° 0.1 mm 7 m/S 756 mmHg 77%
    12:00 +8°C° 0.1 mm 7 m/S 755 mmHg 78%
    13:00 +9°C° 0.1 mm 7 m/S 754 mmHg 78%
    14:00 +10°C° 0.1 mm 8 m/S 753 mmHg 78%
    15:00 +11°C° 0.1 mm 8 m/S 753 mmHg 77%
    16:00 +11°C° 0.1 mm 9 m/S 752 mmHg 77%
    17:00 +11°C° 0.3 mm 9 m/S 752 mmHg 78%
    18:00 +11°C° 0.3 mm 9 m/S 752 mmHg 78%
    19:00 +11°C° 0.3 mm 9 m/S 752 mmHg 79%
    20:00 +11°C° 0.9 mm 9 m/S 753 mmHg 80%
    21:00 +11°C° 0.9 mm 9 m/S 753 mmHg 82%
    22:00 +11°C° 0.9 mm 9 m/S 754 mmHg 84%
    23:00 +10°C° 0.8 mm 8 m/S 755 mmHg 80%

    24 Februar, Montag

    Zeit Temperatur Niederschläge Wind Luftdruck Luftfeuchtigkeit
    00:00 +9°C° 0.8 mm 7 m/S 757 mmHg 75%
    01:00 +7°C° 0.8 mm 6 m/S 758 mmHg 71%
    02:00 +6°C° 0 mm 5 m/S 759 mmHg 72%
    03:00 +5°C° 0 mm 3 m/S 760 mmHg 73%
    04:00 +5°C° 0 mm 2 m/S 761 mmHg 74%
    05:00 +4°C° 0 mm 2 m/S 762 mmHg 75%
    06:00 +5°C° 0 mm 1 m/S 762 mmHg 77%
    07:00 +4°C° 0 mm 1 m/S 763 mmHg 78%
    08:00 +5°C° 0 mm 1 m/S 763 mmHg 73%
    09:00 +6°C° 0 mm 1 m/S 763 mmHg 68%
    10:00 +7°C° 0 mm 1 m/S 763 mmHg 63%
    11:00 +8°C° 0 mm 1 m/S 762 mmHg 57%
    12:00 +9°C° 0 mm 1 m/S 762 mmHg 52%
    13:00 +10°C° 0 mm 1 m/S 761 mmHg 46%
    14:00 +10°C° 0 mm 1 m/S 760 mmHg 46%
    15:00 +11°C° 0 mm 1 m/S 759 mmHg 47%
    16:00 +11°C° 0 mm 1 m/S 759 mmHg 47%
    17:00 +10°C° 0 mm 1 m/S 758 mmHg 53%
    18:00 +9°C° 0 mm 1 m/S 758 mmHg 59%
    19:00 +8°C° 0 mm 1 m/S 757 mmHg 65%
    20:00 +8°C° 0 mm 1 m/S 757 mmHg 68%
    21:00 +8°C° 0 mm 1 m/S 756 mmHg 71%
    22:00 +8°C° 0 mm 1 m/S 756 mmHg 75%
    23:00 +7°C° 0 mm 2 m/S 755 mmHg 77%

    25 Februar, Dienstag

    Zeit Temperatur Niederschläge Wind Luftdruck Luftfeuchtigkeit
    00:00 +7°C° 0 mm 2 m/S 755 mmHg 80%
    01:00 +7°C° 0 mm 2 m/S 754 mmHg 83%
    02:00 +7°C° 0 mm 3 m/S 753 mmHg 83%
    03:00 +8°C° 0 mm 3 m/S 753 mmHg 83%
    04:00 +8°C° 0 mm 3 m/S 752 mmHg 83%
    05:00 +8°C° 0 mm 3 m/S 752 mmHg 83%
    06:00 +7°C° 0 mm 4 m/S 751 mmHg 84%
    07:00 +8°C° 0 mm 4 m/S 751 mmHg 84%
    08:00 +10°C° 0 mm 4 m/S 751 mmHg 82%
    09:00 +9°C° 0 mm 5 m/S 750 mmHg 80%
    10:00 +10°C° 0 mm 6 m/S 750 mmHg 78%
    11:00 +10°C° 0 mm 6 m/S 750 mmHg 76%
    12:00 +11°C° 0 mm 6 m/S 749 mmHg 73%
    13:00 +11°C° 0 mm 6 m/S 749 mmHg 71%
    14:00 +11°C° 0 mm 6 m/S 748 mmHg 70%
    15:00 +11°C° 0 mm 6 m/S 748 mmHg 69%
    16:00 +12°C° 0 mm 5 m/S 747 mmHg 68%
    17:00 +10°C° 0 mm 5 m/S 747 mmHg 70%
    18:00 +10°C° 0 mm 5 m/S 747 mmHg 72%
    19:00 +10°C° 0 mm 4 m/S 747 mmHg 75%
    20:00 +9°C° 0.1 mm 5 m/S 747 mmHg 76%
    21:00 +9°C° 0.1 mm 5 m/S 747 mmHg 78%
    22:00 +8°C° 0.1 mm 5 m/S 747 mmHg 80%
    23:00 +8°C° 0.6 mm 5 m/S 747 mmHg 82%
    Mehr zeigen